NOAA NWS Hourly Roundups by Site

Regional Weather Roundup for State College, PA

To Select Another Site Choose from List

Select Site:  

810
ASUS41 KCTP 092110
RWRCTP

REGIONAL WEATHER ROUNDUP
NATIONAL WEATHER SERVICE STATE COLLEGE PA
400 PM EST MON DEC 09 2019

Note: "fair" indicates few or no clouds below 12,000 feet with no
significant weather and/or obstructions to visibility.

* = STATION THAT DOES NOT REPORT PRECIPITATION /E.G. RAIN...SNOW...ETC/
    THUNDER OR FOG.

PAZ002>004-007>009-013>016-020>023-029>032-092200-
WESTERN PENNSYLVANIA

CITY           SKY/WX    TMP DP  RH WIND       PRES   REMARKS
ERIE           LGT RAIN  53  48  83 S17G26    29.50F
MEADVILLE      RAIN      49  47  93 S12       29.54F
FRANKLIN*      LGT RAIN  50  48  93 SW16G25   29.57F
NEW CASTLE     LGT RAIN  51  50  96 VRB3      29.58F FOG
BEAVER COUNTY  RAIN      53  50  91 S9        29.59
BUTLER*        RAIN      52  52 100 S8        29.60F FOG
PITTSBURGH INT LGT RAIN  53  51  93 SW12G21   29.60F FOG
PITTSBURGH     RAIN      53  52  96 S12       29.61F FOG
INDIANA*       CLOUDY    54  54 100 SW12G18   29.67S FOG
LATROBE        LGT RAIN  55  55 100 SW16      29.64S
WASHINGTON CO* CLOUDY    55  53  93 SW13G21   29.65F
$$

PAZ004>006-010>012-017>019-024>028-033>037-041-042-045-046-049>053-092200-
CENTRAL PENNSYLVANIA

CITY           SKY/WX    TMP DP  RH WIND       PRES   REMARKS
BRADFORD       LGT RAIN  40  37  89 VRB6      29.60F FOG
DUBOIS         LGT RAIN  44  42  93 MISG      29.61F FOG
CLEARFIELD     RAIN      38  37  97 N6        29.66F FOG
JOHNSTOWN      LGT RAIN  47  44  90 S12       29.65F
ALTOONA        CLOUDY    41  38  89 S5        29.72F
STATE COLLEGE  RAIN      39  37  93 W5        29.72F FOG
WILLIAMSPORT   LGT RAIN  44  38  79 VRB5      29.75F
SELINSGROVE    LGT RAIN  43  41  93 SW8       29.78F
FT INDIANTOWN  RAIN      43  43  99 CALM      29.82F FOG
CAPITAL CITY   LGT RAIN  49  44  83 VRB3      29.81F
HARRISBURG     LGT RAIN  48  45  89 SE9       29.81F
YORK           CLOUDY    50  45  83 S10G18    29.80F
$$

PAZ038>040-043-044-047-048-054-055-060>062-067>071-092200-
EASTERN PENNSYLVANIA

CITY           SKY/WX    TMP DP  RH WIND       PRES   REMARKS
SCRANTON       LGT RAIN  48  42  80 SW14G20   29.77F
MOUNT POCONO   LGT RAIN  40  40 100 S10G21    29.81F
ALLENTOWN      RAIN      48  44  86 CALM      29.86F FOG
QUAKERTOWN*    CLOUDY    48  48 100 S7        29.87F FOG
READING        RAIN      50  49  96 S9G18     29.82F
LANCASTER      LGT RAIN  48  45  89 S9        29.83F
COATESVILLE    LGT RAIN  46  46 100 S10       29.87F
POTTSTOWN      RAIN      46  46 100 S5        29.88F FOG
BLUE BELL      RAIN      48  47  99 S3        29.89F FOG
DOYLESTOWN     RAIN      49  47  93 VRB5      29.88F
WILLOW GROVE   NOT AVBL
NORTH PHILA    RAIN      52  48  86 S8        29.91F FOG
PHILADELPHIA   RAIN      49  47  93 S6        29.90F FOG
$$



 

View Past Reports for State College, PA.

Products Courtesy of NOAA-NWS
NWS Information Parsing Script by Ken True at Saratoga Weather - Script by SE Lincoln Weather.